Temperature
18 16 16 17 17 18 18 17 17 17 17 18 17 17 17 18 18 17 17 18 18 19 19 19 18 18 18 18 18 18 17 17 17 16 16 16 16 15 15 15 15 15 15 15
16 17 18 18 18 18 18 17 17 17 18 18 17 17 17 17 17 18 18 18 18 18 18 19 18 18 18 18 18 18 17 17 17 16 16 16 16 15 15 15 15 15 15 15
17 18 18 18 18 18 18 17 17 17 17 17 17 17 17 17 17 18 18 18 19 19 19 19 19 18 18 18 18 18 17 17 17 16 16 16 16 15 15 15 15 15 15 15
17 18 18 18 18 18 17 18 18 17 17 16 17 16 17 16 16 17 17 18 18 19 19 19 19 19 18 18 18 18 17 17 17 17 16 16 16 16 15 15 15 15 15 15
17 18 18 18 18 18 17 18 17 17 16 16 16 16 16 16 16 16 17 18 18 19 19 19 19 19 19 18 18 18 18 17 17 17 17 16 16 16 16 15 15 15 15 15
17 18 18 18 18 18 17 17 16 15 15 15 16 16 16 15 16 17 17 18 18 19 19 19 19 19 19 18 18 18 18 17 17 17 17 17 16 16 16 16 15 15 15 15
17 18 18 18 18 17 17 15 15 15 15 15 16 16 16 17 17 18 18 18 18 19 19 19 19 19 19 19 18 18 18 18 17 17 17 17 17 16 16 16 16 15 15 15
16 16 17 18 18 17 16 16 15 15 15 15 15 15 16 18 18 19 19 19 19 19 19 19 19 19 19 19 19 18 18 18 18 17 17 17 17 16 16 16 16 15 15 15
15 16 18 18 18 17 16 15 15 15 15 15 15 15 16 18 17 17 18 18 18 19 19 19 19 19 19 19 19 19 18 18 18 18 17 17 17 17 16 16 16 16 15 15
16 17 17 18 18 17 17 15 14 15 15 15 15 16 16 17 17 17 17 18 18 19 19 19 20 20 20 19 19 19 19 18 18 18 17 17 17 17 16 16 16 16 15 15
16 16 17 17 17 17 16 16 15 14 14 15 15 16 17 17 17 17 17 18 19 19 19 20 20 20 20 20 19 19 19 18 18 18 17 17 17 17 17 16 16 16 16 15
15 14 15 16 17 17 17 16 15 15 15 14 14 15 18 17 17 17 18 18 19 19 20 20 20 20 20 20 19 19 19 18 18 18 18 17 17 17 17 16 16 16 16 15
16 15 15 16 16 16 17 16 15 14 14 13 14 16 18 17 17 18 19 19 19 19 19 20 20 20 20 20 19 19 19 19 18 18 18 17 17 17 17 16 16 16 16 15
16 14 15 16 16 16 16 16 15 14 14 14 15 16 17 18 17 18 19 19 19 20 20 20 20 20 20 20 20 19 19 19 18 18 18 18 17 17 17 17 16 16 16 16
16 15 15 16 17 16 17 17 16 15 15 15 16 16 17 18 18 19 19 19 19 19 19 20 20 20 20 20 20 19 19 19 18 18 18 18 18 17 17 17 16 16 16 16
16 16 15 16 17 16 16 17 16 16 16 16 16 17 17 19 19 19 19 19 19 19 20 20 20 20 20 20 20 19 19 19 19 18 18 18 18 17 17 17 16 16 16 15
15 15 15 15 16 16 16 16 16 16 16 16 16 17 18 18 18 19 19 19 20 20 20 20 20 20 21 21 20 20 19 19 19 18 18 18 18 17 17 17 16 16 16 15
14 15 14 14 16 16 17 17 18 17 17 17 17 17 18 18 20 20 20 20 20 21 21 21 21 21 21 21 20 20 19 19 19 18 18 18 18 17 17 17 16 16 16 16
14 14 14 14 15 15 17 17 17 17 17 17 17 18 18 19 19 19 21 21 21 21 21 21 21 21 21 21 20 20 19 19 19 18 18 18 18 17 17 17 17 16 16 16
14 14 14 14 15 15 17 18 18 18 17 18 18 17 18 18 17 18 21 21 22 22 22 22 21 21 21 21 20 20 20 19 19 19 19 18 18 17 17 17 17 16 16 16
14 14 14 14 15 15 17 18 18 17 18 19 19 19 18 18 19 21 21 21 22 22 22 22 21 21 21 21 20 20 20 20 20 19 19 18 18 17 17 17 16 16 16 15
14 13 13 13 14 16 17 17 17 18 19 20 20 20 19 20 21 21 21 22 22 22 22 22 21 21 21 21 21 21 20 20 19 19 18 18 18 17 17 16 16 16 15 15
14 14 14 15 16 17 18 18 19 20 19 20 20 20 20 20 20 21 21 21 22 22 22 22 21 21 21 21 21 21 20 20 19 19 18 18 18 17 17 16 16 16 15 15
13 13 13 14 15 16 18 19 20 20 20 20 20 20 20 20 21 21 21 21 21 21 21 21 21 21 21 20 20 20 20 19 19 19 18 18 17 17 17 16 16 16 15 15
13 13 13 14 15 17 18 19 19 20 20 20 20 20 21 21 21 21 21 21 21 21 21 21 21 21 21 20 20 20 19 19 19 18 18 17 17 17 16 16 16 16 15 15
12 13 14 15 16 16 18 19 19 20 20 20 20 20 20 20 20 20 20 21 21 21 21 21 20 20 20 20 20 19 19 19 18 18 18 17 17 17 16 16 15 15 15 15
Wind_Speed
4 5 2 3 4 3 4 3 2 2 1 1 3 3 4 6 6 7 7 6 7 6 4 4 5 6 6 6 6 6 7 5 5 3 3 3 3 3 3 5 8 8 8 8
6 1 3 3 3 4 4 3 1 1 1 1 1 3 3 6 7 9 10 9 8 6 5 5 5 5 6 6 6 6 6 6 4 3 3 3 3 2 2 3 7 9 8 8
3 3 1 3 3 3 2 3 3 2 1 3 2 3 3 4 5 6 7 8 8 10 10 8 7 6 6 7 8 7 7 6 4 4 4 4 4 3 3 4 4 6 8 8
1 2 1 3 2 4 1 2 4 4 3 1 1 2 6 5 5 8 9 9 10 9 9 9 8 8 8 7 6 6 7 6 5 5 5 5 3 2 1 1 2 4 8 8
1 1 2 2 2 4 3 3 4 4 3 1 0 2 6 2 7 10 11 12 11 11 11 11 10 10 8 7 7 6 6 5 5 5 6 6 4 2 2 2 4 4 5 8
2 1 2 3 1 4 5 6 6 5 4 1 4 3 6 5 9 9 11 13 12 12 11 10 9 8 7 6 6 6 7 5 5 5 5 6 6 5 4 3 3 3 3 4
2 1 0 2 4 3 5 6 3 3 2 4 3 4 8 8 8 12 13 14 13 12 12 11 10 10 9 9 8 7 8 6 6 6 6 5 6 6 5 3 3 2 2 2
2 3 3 3 5 5 4 7 6 4 4 4 2 6 7 6 6 7 9 11 12 12 11 12 12 11 11 11 9 9 9 7 7 6 6 5 5 4 3 3 3 3 2 1
6 4 2 2 3 8 6 4 6 5 2 2 5 6 8 4 3 2 6 10 13 14 14 13 12 11 11 11 11 11 10 8 7 7 6 5 5 5 4 4 3 3 2 2
8 3 2 0 4 3 5 7 5 4 3 3 5 5 5 5 4 2 6 10 12 13 13 12 11 12 11 11 10 9 9 9 7 7 6 5 5 5 5 5 5 4 3 3
6 4 1 1 4 6 5 4 4 4 4 3 3 6 5 6 5 5 7 9 11 13 13 13 12 11 11 10 10 9 9 8 7 7 6 6 5 5 5 5 5 4 4 4
6 5 2 4 3 4 5 7 7 5 3 4 3 7 6 5 4 4 5 7 9 10 11 11 11 11 11 11 10 10 9 9 8 8 7 6 5 6 6 5 4 5 5 4
8 6 3 3 3 0 3 5 5 5 5 5 4 7 4 2 2 3 5 6 7 9 9 9 10 11 12 12 11 11 10 9 8 8 8 7 6 6 6 6 5 5 5 5
7 5 6 8 7 5 4 5 6 6 5 5 8 10 10 7 5 4 4 5 6 8 10 11 11 11 11 11 11 11 10 9 9 9 9 8 8 7 7 6 6 5 6 6
6 5 6 6 5 5 6 6 8 9 9 9 9 9 12 9 7 6 4 5 6 9 10 12 13 12 11 11 10 10 10 9 9 9 9 8 7 7 7 6 6 5 5 5
5 6 5 3 4 5 5 7 8 10 8 9 8 11 10 7 5 4 5 7 8 10 12 12 13 13 13 13 12 11 11 10 10 10 9 8 8 8 7 7 6 6 5 5
6 7 5 3 2 1 6 9 10 7 8 9 11 13 6 5 6 7 8 9 10 11 11 13 14 15 14 14 13 14 12 10 11 10 9 9 9 9 8 8 7 7 6 5
8 7 5 3 2 6 8 5 9 9 9 11 10 9 8 9 7 6 7 8 9 10 11 12 12 12 12 12 11 11 11 11 11 10 10 10 10 9 8 8 8 6 5 5
6 8 5 4 4 6 8 5 6 7 8 9 11 11 8 5 1 5 6 8 10 10 10 10 11 11 11 12 13 12 12 11 11 11 11 11 11 10 10 9 8 6 6 5
4 5 6 5 4 6 8 4 3 4 6 7 9 10 7 5 2 6 5 5 6 7 7 8 8 8 10 11 12 14 13 13 14 13 12 11 11 12 11 10 8 5 5 6
5 4 5 5 5 7 8 4 5 4 7 4 6 7 6 8 8 5 3 3 4 5 6 8 9 10 11 12 14 14 13 14 13 11 10 10 11 11 10 9 7 7 7 6
8 7 6 6 4 8 5 6 7 8 4 3 4 5 6 6 5 3 3 3 3 4 5 8 9 9 8 11 14 13 13 11 10 11 11 11 10 10 9 9 7 7 8 7
7 8 7 9 8 6 3 6 5 3 3 4 3 4 4 4 4 3 2 2 2 4 5 6 8 9 8 11 13 14 11 10 11 11 11 10 9 8 9 10 10 7 7 7
4 2 4 4 6 5 5 4 3 3 4 4 3 3 3 4 3 3 2 2 3 3 5 6 8 9 9 9 10 10 10 11 12 11 10 9 10 8 8 7 8 8 8 7
5 5 4 4 5 4 4 3 3 2 1 1 1 1 3 3 2 3 3 3 3 3 4 6 7 8 8 9 9 9 10 12 11 10 10 9 9 9 8 7 7 8 8 9
5 6 7 6 6 4 5 4 2 1 1 1 1 2 1 3 3 3 3 3 3 4 5 5 5 6 6 8 8 8 10 12 12 10 9 8 7 7 7 7 4 3 4 8
Wind_Direction
46 71 129 190 173 154 136 133 170 238 280 174 209 218 199 172 169 174 181 190 197 197 180 158 154 144 133 126 126 129 129 132 126 108 96 84 59 29 25 32 40 47 54 58
48 8 229 173 151 124 122 128 179 322 347 157 214 255 219 191 191 192 186 189 191 178 161 159 154 155 157 151 148 142 146 149 146 124 119 113 106 66 35 22 36 39 46 52
155 242 172 134 125 122 122 166 184 184 23 48 87 312 242 217 194 194 193 190 188 184 179 174 171 172 168 167 170 164 162 158 150 130 109 85 62 41 28 20 18 22 41 52
218 266 130 123 151 143 211 205 156 131 102 347 106 266 268 216 206 205 202 196 193 189 181 179 177 178 183 185 173 160 158 157 154 146 137 131 123 113 65 23 19 28 42 49
251 181 140 159 192 153 170 108 106 105 115 52 334 215 279 198 218 219 210 204 196 190 184 184 185 184 186 179 169 161 152 155 157 154 147 134 124 126 98 66 53 38 34 43
231 250 172 169 95 120 121 77 62 54 72 284 228 201 271 226 217 213 209 205 198 190 186 186 182 175 177 169 162 157 154 159 157 153 150 148 146 138 119 95 77 46 33 33
356 341 271 140 94 60 94 92 48 10 4 256 235 216 251 243 225 212 204 201 196 188 183 180 177 177 177 173 171 164 161 166 164 158 160 162 157 152 150 147 128 104 62 41
160 277 233 180 164 164 158 140 156 190 225 276 259 237 257 267 258 224 203 189 183 182 184 185 186 183 181 179 175 169 171 173 169 167 168 161 156 153 153 152 141 137 126 95
174 239 282 199 156 139 137 164 163 138 172 258 271 281 299 297 314 214 185 176 181 184 185 187 188 186 181 180 182 177 175 173 171 169 157 155 156 155 154 147 138 133 126 110
157 191 285 141 92 59 144 143 114 130 161 261 292 279 264 290 286 243 194 190 189 186 184 184 186 188 184 182 179 173 174 177 171 164 162 161 160 158 148 140 142 138 128 107
142 151 310 104 176 172 127 124 122 126 154 167 283 280 233 236 246 234 223 205 191 187 185 184 185 185 179 173 170 171 174 168 165 165 159 154 155 147 141 144 149 144 133 125
148 130 199 249 258 188 168 170 152 157 208 184 204 270 265 232 242 233 225 213 197 188 186 184 179 174 173 174 174 175 177 174 173 166 157 156 149 143 145 148 147 141 136 130
147 128 110 360 349 157 181 177 169 143 140 171 200 265 293 302 287 251 221 211 196 180 174 174 172 176 178 178 178 177 179 178 168 160 155 152 153 154 158 157 150 145 138 129
131 131 165 190 210 190 197 192 169 150 174 212 226 254 286 296 289 276 236 210 189 177 175 176 178 182 181 178 178 178 179 172 165 161 159 162 167 167 163 157 151 148 144 139
134 166 198 217 212 185 205 206 189 194 200 209 236 245 261 263 258 250 223 199 184 180 182 184 183 183 180 177 177 177 176 170 166 164 167 173 166 157 151 151 150 144 144 149
148 166 176 236 229 212 238 235 215 217 218 226 246 261 256 250 238 237 220 205 199 194 191 189 185 182 183 183 180 177 176 173 167 170 174 166 156 155 157 156 149 143 143 141
159 146 154 231 259 175 260 231 214 213 212 201 227 243 251 253 244 231 221 208 205 203 194 189 188 188 188 187 181 182 179 169 169 172 168 163 161 161 163 158 152 155 155 147
154 148 151 163 131 238 246 233 210 217 233 218 228 241 232 235 243 243 227 212 213 205 196 193 191 189 185 180 177 173 162 166 171 172 170 167 164 164 160 157 162 161 153 153
157 145 141 151 206 270 284 253 195 203 250 227 229 244 242 226 248 278 238 212 210 206 198 191 188 183 176 175 170 162 165 169 174 179 178 175 169 166 164 168 169 162 155 157
112 129 138 149 178 238 252 255 188 142 271 247 219 235 223 155 192 261 251 216 209 197 187 178 168 161 169 173 164 165 172 176 186 187 182 175 171 171 173 174 167 158 157 159
129 136 158 170 206 255 253 243 132 166 245 250 207 218 191 185 211 236 220 209 199 184 174 164 162 170 177 168 165 171 176 189 189 175 167 168 172 173 171 164 159 152 150 144
169 165 176 158 193 249 243 153 182 220 259 264 232 216 197 210 227 232 223 214 193 165 154 156 165 172 167 165 168 175 187 185 164 160 165 169 170 170 164 155 153 152 151 149
188 186 182 187 211 240 212 208 232 228 247 253 237 234 196 205 218 210 217 213 191 184 167 159 160 159 162 170 173 180 181 161 157 161 168 167 163 163 158 159 158 155 157 162
236 165 157 219 255 261 260 263 274 242 228 247 240 234 187 196 206 199 187 178 176 172 163 153 149 156 167 174 176 174 158 155 157 164 165 162 161 160 157 159 164 167 173 175
206 166 174 229 261 290 291 266 261 270 257 258 286 203 185 175 181 183 180 177 174 155 151 150 158 164 169 168 167 156 152 153 158 162 162 163 164 163 163 167 176 180 190 187
200 179 178 217 222 198 244 268 251 218 273 265 71 34 48 147 165 162 165 158 145 143 142 145 148 151 158 159 157 154 155 156 157 160 163 165 163 163 163 162 159 184 183 193
Height
1515 1521 1525 1524 1523 1525 1528 1532 1535 1533 1528 1530 1532 1532 1531 1532 1534 1536 1538 1539 1541 1543 1546 1549 1551 1553 1555 1556 1558 1559 1560 1561 1562 1562 1562 1562 1562 1562 1562 1561 1561 1560 1560 1559
1521 1524 1520 1520 1521 1524 1527 1533 1535 1532 1529 1530 1532 1533 1530 1531 1532 1533 1535 1538 1540 1542 1545 1548 1551 1553 1555 1557 1558 1560 1561 1562 1563 1563 1564 1564 1564 1564 1564 1563 1563 1562 1562 1561
1522 1522 1518 1520 1522 1526 1528 1531 1533 1534 1531 1530 1533 1535 1532 1530 1531 1533 1534 1536 1538 1541 1543 1546 1549 1552 1554 1557 1559 1560 1562 1563 1564 1564 1565 1565 1565 1565 1565 1565 1564 1564 1564 1563
1520 1518 1518 1520 1523 1524 1531 1526 1528 1531 1537 1542 1539 1548 1534 1530 1530 1530 1532 1534 1536 1539 1542 1545 1548 1551 1554 1556 1559 1561 1562 1563 1564 1565 1566 1566 1566 1566 1566 1566 1566 1566 1565 1565
1521 1518 1519 1522 1522 1522 1526 1524 1528 1532 1538 1543 1541 1546 1539 1530 1530 1527 1527 1529 1532 1536 1539 1543 1546 1549 1553 1556 1559 1561 1562 1564 1565 1566 1567 1567 1568 1568 1568 1568 1568 1567 1567 1567
1518 1517 1517 1519 1519 1520 1524 1528 1533 1538 1543 1551 1543 1547 1541 1530 1524 1521 1522 1524 1528 1532 1537 1541 1545 1549 1552 1555 1558 1560 1562 1564 1565 1566 1567 1568 1569 1569 1569 1569 1569 1569 1569 1569
1522 1519 1517 1517 1521 1523 1526 1538 1551 1553 1557 1554 1541 1543 1535 1518 1513 1513 1515 1519 1523 1528 1533 1538 1542 1546 1549 1553 1556 1559 1561 1563 1565 1566 1567 1568 1569 1570 1570 1570 1570 1570 1570 1570
1529 1530 1519 1517 1520 1525 1528 1534 1551 1559 1560 1553 1542 1542 1526 1512 1509 1509 1511 1515 1520 1525 1530 1534 1539 1543 1547 1551 1554 1557 1560 1562 1564 1566 1567 1568 1570 1570 1571 1571 1572 1572 1572 1572
1528 1528 1516 1515 1516 1520 1529 1534 1534 1546 1549 1553 1546 1535 1520 1510 1508 1507 1509 1512 1516 1520 1525 1530 1535 1540 1544 1548 1552 1555 1558 1561 1563 1565 1567 1568 1570 1571 1571 1572 1572 1573 1573 1573
1518 1524 1518 1516 1517 1519 1522 1528 1539 1545 1553 1556 1546 1537 1529 1514 1510 1507 1507 1509 1512 1517 1521 1527 1532 1537 1541 1546 1550 1554 1557 1560 1562 1564 1566 1568 1569 1571 1572 1572 1573 1574 1574 1575
1513 1523 1522 1519 1520 1523 1526 1529 1534 1542 1545 1553 1553 1539 1513 1510 1507 1506 1505 1507 1510 1513 1517 1522 1528 1533 1538 1543 1547 1551 1555 1558 1561 1563 1565 1567 1569 1570 1572 1573 1574 1574 1575 1576
1512 1522 1528 1522 1516 1515 1518 1523 1531 1541 1544 1546 1548 1537 1505 1505 1503 1503 1503 1505 1507 1510 1514 1519 1524 1530 1535 1539 1544 1548 1552 1556 1559 1562 1564 1566 1568 1570 1571 1573 1574 1575 1576 1576
1509 1520 1531 1529 1526 1520 1519 1520 1523 1529 1538 1544 1546 1531 1503 1503 1502 1501 1502 1503 1505 1508 1512 1516 1521 1526 1531 1536 1540 1545 1550 1553 1557 1560 1562 1565 1567 1569 1571 1572 1573 1575 1576 1577
1502 1515 1524 1529 1525 1518 1519 1518 1520 1527 1535 1537 1532 1521 1507 1503 1501 1500 1500 1501 1502 1505 1509 1513 1517 1522 1527 1532 1537 1542 1547 1551 1555 1558 1561 1563 1566 1568 1570 1572 1573 1574 1576 1577
1501 1512 1513 1513 1510 1512 1513 1513 1515 1520 1521 1525 1518 1514 1504 1500 1498 1497 1497 1499 1500 1502 1505 1509 1513 1518 1523 1529 1534 1539 1544 1548 1552 1555 1558 1561 1564 1567 1569 1571 1572 1574 1575 1576
1500 1507 1511 1511 1508 1510 1511 1509 1510 1512 1511 1513 1511 1506 1495 1495 1494 1494 1495 1496 1497 1499 1501 1505 1509 1514 1519 1524 1530 1535 1540 1545 1549 1552 1556 1559 1562 1565 1567 1569 1571 1573 1574 1575
1500 1506 1513 1517 1510 1510 1515 1504 1503 1504 1501 1503 1505 1497 1491 1492 1491 1491 1491 1492 1493 1495 1497 1501 1505 1509 1514 1520 1525 1531 1536 1541 1545 1549 1553 1556 1560 1562 1565 1567 1569 1571 1572 1574
1498 1503 1511 1515 1515 1520 1503 1490 1491 1494 1492 1491 1490 1487 1487 1487 1487 1487 1487 1488 1489 1491 1494 1497 1501 1506 1511 1516 1522 1527 1533 1538 1542 1546 1549 1553 1557 1560 1563 1565 1567 1569 1570 1572
1490 1499 1510 1516 1517 1511 1496 1488 1488 1491 1490 1483 1484 1482 1482 1483 1485 1484 1483 1484 1485 1488 1491 1494 1498 1502 1508 1513 1518 1524 1529 1534 1538 1542 1545 1549 1553 1556 1559 1562 1564 1566 1568 1570
1491 1494 1505 1512 1514 1513 1495 1482 1481 1486 1490 1477 1477 1477 1478 1481 1487 1482 1480 1481 1483 1486 1489 1492 1496 1500 1505 1509 1515 1519 1524 1529 1533 1537 1542 1546 1550 1553 1556 1559 1561 1563 1565 1567
1496 1499 1503 1508 1509 1500 1483 1479 1481 1494 1486 1472 1472 1473 1475 1477 1478 1478 1478 1480 1481 1484 1486 1490 1493 1497 1501 1506 1511 1515 1520 1524 1529 1534 1538 1542 1546 1549 1553 1556 1558 1561 1563 1564
1490 1497 1501 1504 1507 1499 1475 1478 1481 1477 1471 1470 1470 1471 1472 1473 1474 1476 1477 1478 1480 1482 1484 1487 1491 1494 1498 1502 1507 1511 1516 1521 1526 1530 1534 1539 1542 1546 1549 1552 1555 1557 1559 1561
1482 1482 1484 1486 1485 1474 1472 1472 1471 1471 1470 1469 1468 1469 1471 1471 1472 1474 1476 1477 1479 1481 1483 1485 1488 1492 1496 1499 1504 1508 1513 1518 1522 1526 1530 1535 1539 1542 1545 1548 1551 1554 1556 1558
1476 1475 1478 1479 1474 1471 1470 1469 1469 1469 1468 1468 1467 1468 1469 1470 1471 1473 1474 1476 1478 1479 1481 1483 1486 1489 1492 1496 1501 1505 1510 1514 1519 1523 1527 1531 1535 1538 1542 1545 1548 1550 1552 1554
1471 1473 1475 1475 1470 1468 1467 1467 1467 1467 1467 1467 1466 1467 1467 1468 1469 1471 1472 1474 1476 1477 1479 1481 1484 1487 1490 1494 1498 1503 1507 1511 1516 1520 1524 1527 1531 1534 1538 1541 1544 1547 1549 1551
1467 1468 1471 1470 1465 1466 1466 1466 1466 1466 1465 1465 1465 1466 1467 1467 1468 1470 1471 1472 1474 1476 1478 1480 1483 1486 1489 1493 1496 1500 1505 1509 1513 1516 1520 1524 1527 1531 1534 1537 1540 1543 1546 1548